sat.trackr.live / text

‹ back to catalog

STARLINK-31830

NORAD 59769 · 2024-091S

PAYLOAD ACTIVE UNKNOWN

§ Identity

Operator
Country
US
Launch date
2024-05-14
Launch site
AFWTR
Launch vehicle
Mass (kg)
RCS (m²)

Purposes: comms

External: N2YO · Heavens-Above · Gunter

§ Orbital elements

Epoch: 2026-09-21T02:53:39.357888Z

Period
93.85 min
Inclination
53.1612°
Eccentricity
0.0001518
Mean motion
15.34389639 rev/d
Perigee alt
461.7 km
Apogee alt
463.8 km
Semi-major
6,840.9 km
B*
1.1996e-5
RAAN
198.5700°
Arg perigee
92.9579°
Mean anomaly
267.1598°
Rev number
13,293

§ Raw data

STARLINK-318301 59769U 24091S   26264.12059442  .00000029  00000+0  11996-4 0  99992 59769  53.1612 198.5700 0001518  92.9579 267.1598 15.34389639132939

JSON: /api/v1/satellites/59769 · /tle

For live sub-satellite position, see the globe view (requires WebGL).

§ Visibility from observer

Set your observer location to see the next 7 days of passes ≥ 10°. The values pass through the URL so the page stays shareable.

No JS? Fill the form by hand. The geolocation button needs JavaScript.